User: anonymous   Login
Location: Unspecified
(0.0000°N, 0.0000°E)
Time: 21:55:03
(UTC+00:00)
Language:

Galaxy 2 - Orbit

View from above orbital plane
View from above orbital plane
View from above satellite
View from above satellite

Ground track
Ground track

The orbit is defined by the following mean orbital elements,

1 14365U          26150.25572479 +.00000000 +00000-0 +00000-0 0 00007
2 14365  13.6259 342.1229 0004589  95.3054  93.1577  1.00204616    04
Epoch (UTC): 30 May 2026 06:08:14
Eccentricity: 0.0004589
inclination: 13.6259°
perigee height: 35786 km
apogee height: 35825 km
right ascension of ascending node: 342.1229°
argument of perigee: 95.3054°
revolutions per day: 1.00204616
mean anomaly at epoch: 93.1577°

The dashed part of the orbit path shows where the satellite is in the earth's shadow,  

DLR